Weather History for South Haven, MI

Change the Weather History Date:

Thursday, October 4, 2012

  Actual Average (KBIV) Record (KBIV)
Temperature  
Mean Temperature 68 °F 56 °F  
Max Temperature 79 °F 66 °F 89 °F (1951)
Min Temperature 57 °F 47 °F 26 °F (1965)
Degree Days  
Heating Degree Days 0 9  
Month to date heating degree days 35  
Since 1 July heating degree days 165  
Cooling Degree Days 4 1  
Month to date cooling degree days 4  
Year to date cooling degree days 686  
Growing Degree Days 18 (Base 50)    
Moisture  
Dew Point 56 °F    
Average Humidity 75    
Maximum Humidity 97    
Minimum Humidity 33    
Precipitation  
Precipitation 0.00 in 0.10 in 3.66 in (1954)
Month to date precipitation 0.40  
Year to date precipitation 27.51  
Sea Level Pressure  
Sea Level Pressure 30.03 in    
Wind  
Wind Speed 7 mph (SW)    
Max Wind Speed 15 mph    
Max Gust Speed 24 mph    
Visibility 8 miles    
Events Rain    
T = Trace of Precipitation, MM = Missing Value Source: NWS Daily Summary

Daily Weather History Graph

Daily Weather History Graph

Search for Another Location

Airport:

Trip Planner

Search our weather history database for the weather conditions in past years. The results will help you decide how hot, cold, wet, or windy it might be!

Date:

Astronomy

Oct. 04, 2012 Rise Set
Actual Time 7:45 AM EDT 7:20 PM EDT
Civil Twilight 7:17 AM EDT 7:48 PM EDT
Nautical Twilight 6:45 AM EDT 8:20 PM EDT
Astronomical Twilight 6:12 AM EDT 8:53 PM EDT
Moon 9:50 PM EDT (10/4) 12:07 PM EDT (10/4)
Length of Visible Light 12h 30m
Length of Day
11h 34m
Waning Gibbous, 82% of the Moon is Illuminated
Oct 4
Waning Gibbous
Oct 8
Last Quarter
Oct 15
New
Oct 21
First Quarter
Oct 29
Full

Hourly Weather History & Observations

Time (EDT) Temp. Dew Point Humidity Pressure Visibility Wind Dir Wind Speed Gust Speed Precip Events Conditions
12:15 AM 60.4 °F 59.0 °F 95% 30.02 in 5.0 mi SSW 5.8 mph - N/A   Overcast
12:35 AM 60.8 °F 59.2 °F 94% 30.03 in 5.0 mi SSW 4.6 mph - N/A   Overcast
12:55 AM 60.8 °F 59.2 °F 94% 30.03 in 5.0 mi SSW 5.8 mph - N/A   Overcast
1:15 AM 60.6 °F 59.0 °F 94% 30.03 in 5.0 mi South 4.6 mph - N/A   Overcast
1:35 AM 60.4 °F 59.0 °F 95% 30.03 in 5.0 mi SSW 4.6 mph - N/A   Overcast
1:54 AM 60.3 °F 59.0 °F 96% 30.03 in 4.0 mi SSW 3.5 mph - N/A   Overcast
2:15 AM 60.1 °F 58.8 °F 96% 30.03 in 4.0 mi South 3.5 mph - N/A Rain Light Rain
2:35 AM 59.9 °F 58.6 °F 96% 30.03 in 4.0 mi Calm Calm - N/A   Overcast
2:55 AM 59.9 °F 58.6 °F 96% 30.03 in 4.0 mi South 3.5 mph - N/A Rain Light Rain
3:15 AM 59.9 °F 58.6 °F 96% 30.03 in 4.0 mi South 3.5 mph - N/A   Overcast
3:35 AM 59.9 °F 58.5 °F 95% 30.04 in 4.0 mi South 4.6 mph - N/A   Overcast
3:55 AM 59.7 °F 58.3 °F 95% 30.03 in 5.0 mi Calm Calm - N/A   Overcast
4:15 AM 59.4 °F 58.1 °F 96% 30.04 in 5.0 mi South 3.5 mph - N/A   Overcast
4:35 AM 59.2 °F 57.9 °F 96% 30.04 in 5.0 mi South 3.5 mph - N/A   Mostly Cloudy
4:55 AM 59.2 °F 58.1 °F 96% 30.04 in 5.0 mi SSW 3.5 mph - N/A Rain Rain
5:15 AM 59.2 °F 58.1 °F 96% 30.04 in 4.0 mi SSW 4.6 mph - N/A Rain Rain
5:35 AM 59.4 °F 58.1 °F 96% 30.04 in 4.0 mi SSW 3.5 mph - N/A Rain Light Rain
5:55 AM 59.2 °F 58.1 °F 96% 30.05 in 4.0 mi SSW 3.5 mph - N/A Rain Rain
6:15 AM 60.1 °F 59.0 °F 96% 30.05 in 5.0 mi SW 4.6 mph - N/A   Overcast
6:35 AM 61.2 °F 59.0 °F 93% 30.05 in 10.0 mi SW 5.8 mph - N/A   Overcast
6:55 AM 61.2 °F 59.0 °F 93% 30.05 in 10.0 mi SW 5.8 mph - N/A   Overcast
7:15 AM 61.2 °F 59.0 °F 93% 30.05 in 10.0 mi SW 5.8 mph - N/A   Overcast
7:35 AM 60.6 °F 59.0 °F 94% 30.05 in 10.0 mi SSW 5.8 mph - N/A   Mostly Cloudy
7:55 AM 59.0 °F 58.1 °F 97% 30.05 in 4.0 mi South 4.6 mph - N/A   Scattered Clouds
8:15 AM 59.0 °F 57.7 °F 96% 30.05 in 5.0 mi South 4.6 mph - N/A   Clear
8:35 AM 58.6 °F 57.4 °F 96% 30.05 in 5.0 mi South 4.6 mph - N/A   Clear
8:55 AM 59.2 °F 57.0 °F 93% 30.05 in 7.0 mi South 4.6 mph - N/A   Clear
9:15 AM 59.9 °F 56.8 °F 90% 30.05 in 10.0 mi South 5.8 mph - N/A   Clear
9:35 AM 60.8 °F 57.0 °F 87% 30.05 in 10.0 mi SSW 6.9 mph - N/A   Clear
9:55 AM 61.9 °F 56.5 °F 82% 30.06 in 10.0 mi SSW 8.1 mph - N/A   Scattered Clouds
10:15 AM 63.5 °F 56.5 °F 78% 30.07 in 10.0 mi SSW 12.7 mph 17.3 mph N/A   Mostly Cloudy
10:35 AM 62.6 °F 56.3 °F 80% 30.07 in 10.0 mi SSW 10.4 mph - N/A   Mostly Cloudy
10:55 AM 65.1 °F 57.2 °F 75% 30.06 in 10.0 mi SSW 8.1 mph 17.3 mph N/A   Scattered Clouds
11:15 AM 67.1 °F 57.0 °F 70% 30.06 in 10.0 mi SSW 10.4 mph - N/A   Scattered Clouds
11:35 AM 69.1 °F 57.4 °F 66% 30.06 in 10.0 mi SW 10.4 mph 16.1 mph N/A   Clear
11:55 AM 70.0 °F 56.8 °F 63% 30.05 in 10.0 mi SSW 9.2 mph - N/A   Clear
12:15 PM 71.6 °F 55.8 °F 57% 30.05 in 10.0 mi SSW 9.2 mph - N/A   Clear
12:35 PM 73.0 °F 55.0 °F 53% 30.05 in 10.0 mi SW 9.2 mph 17.3 mph N/A   Clear
12:55 PM 74.5 °F 54.9 °F 50% 30.05 in 10.0 mi SW 12.7 mph 18.4 mph N/A   Clear
1:15 PM 75.2 °F 53.2 °F 46% 30.04 in 10.0 mi SSW 11.5 mph 19.6 mph N/A   Clear
1:35 PM 75.7 °F 51.3 °F 42% 30.04 in 10.0 mi SSW 15.0 mph 21.9 mph N/A   Clear
1:55 PM 76.1 °F 50.2 °F 40% 30.02 in 10.0 mi SW 12.7 mph 19.6 mph N/A   Clear
2:15 PM 77.4 °F 48.9 °F 37% 30.00 in 10.0 mi SSW 11.5 mph 18.4 mph N/A   Clear
2:35 PM 78.3 °F 47.3 °F 34% 30.00 in 10.0 mi SSW 15.0 mph - N/A   Clear
2:55 PM 79.0 °F 47.8 °F 33% 29.99 in 10.0 mi SW 10.4 mph 20.7 mph N/A   Clear
3:15 PM 79.0 °F 47.8 °F 33% 29.99 in 10.0 mi SW 12.7 mph 21.9 mph N/A   Clear
3:35 PM 79.2 °F 47.3 °F 33% 29.99 in 10.0 mi SSW 10.4 mph 21.9 mph N/A   Clear
3:55 PM 79.3 °F 48.7 °F 34% 29.98 in 10.0 mi SSW 11.5 mph 21.9 mph N/A   Scattered Clouds
4:15 PM 78.8 °F 49.3 °F 35% 29.98 in 10.0 mi SW 15.0 mph 20.7 mph N/A   Mostly Cloudy
4:35 PM 78.1 °F 50.9 °F 39% 29.98 in 10.0 mi SW 11.5 mph 17.3 mph N/A   Overcast
4:55 PM 78.1 °F 51.1 °F 39% 29.97 in 10.0 mi SW 11.5 mph 16.1 mph N/A   Overcast
5:15 PM 77.4 °F 52.2 °F 41% 29.97 in 10.0 mi SSW 8.1 mph 17.3 mph N/A   Overcast
5:34 PM 77.4 °F 52.5 °F 42% 29.97 in 10.0 mi SW 11.5 mph - N/A   Overcast
5:55 PM 76.3 °F 54.1 °F 46% 29.98 in 10.0 mi WSW 9.2 mph 17.3 mph N/A Rain Light Rain
6:15 PM 71.6 °F 60.8 °F 69% 29.98 in 7.0 mi SW 9.2 mph 17.3 mph N/A Rain Rain
6:35 PM 70.0 °F 62.1 °F 76% 29.99 in 10.0 mi WSW 8.1 mph - N/A   Overcast
6:55 PM 69.4 °F 62.1 °F 77% 29.99 in 10.0 mi WSW 9.2 mph - N/A   Overcast
7:15 PM 67.8 °F 61.2 °F 79% 30.01 in 10.0 mi West 13.8 mph 20.7 mph N/A   Overcast
7:35 PM 66.2 °F 59.0 °F 78% 30.02 in 10.0 mi West 11.5 mph 20.7 mph N/A   Overcast
7:55 PM 65.7 °F 57.7 °F 76% 30.02 in 10.0 mi West 11.5 mph 18.4 mph N/A Rain Light Rain
8:15 PM 65.1 °F 56.5 °F 74% 30.03 in 10.0 mi WSW 11.5 mph 23.0 mph N/A   Overcast
8:35 PM 62.8 °F 56.7 °F 80% 30.04 in 7.0 mi WSW 15.0 mph 19.6 mph N/A Rain Rain
8:55 PM 60.1 °F 57.4 °F 91% 30.05 in 5.0 mi West 13.8 mph 24.2 mph N/A Rain Light Rain
10:15 PM 60.4 °F 55.2 °F 83% 30.05 in 10.0 mi West 13.8 mph 23.0 mph N/A   Overcast
10:35 PM 59.7 °F 54.0 °F 81% 30.04 in 10.0 mi West 8.1 mph - N/A   Overcast
10:55 PM 59.9 °F 53.6 °F 80% 30.05 in 10.0 mi West 10.4 mph - N/A   Overcast
11:15 PM 59.7 °F 53.2 °F 79% 30.07 in 10.0 mi West 9.2 mph - N/A Rain Rain
11:35 PM 58.1 °F 52.3 °F 81% 30.07 in 7.0 mi WNW 11.5 mph - N/A Rain Light Rain
11:55 PM 57.2 °F 52.0 °F 83% 30.07 in 10.0 mi WSW 6.9 mph - N/A Rain Light Rain